When you browse on this site, cookies collect data to enhance your experience and personalize the content and advertising you see.
Visit our Privacy Policy to learn more. By continuing to use the site, you agree to this use of cookies and data.
  • In Hungary
  • List of Countries
  • For 7 days
  • Water Temperature
  • Satellite Maps
  • Weather Map
  • News
  • Weather Widgets
  • user-avatar
    Login

    Hourly Weather Kitwe

    Today, 23 February, Saturday

    Time Temperature Precipitation Wind Pressure Humidity
    00:00 +19°C° 0.7 mm 1 mps 659 mmHg 97%
    01:00 +19°C° 0.7 mm 1 mps 659 mmHg 97%
    02:00 +19°C° 0 mm 1 mps 658 mmHg 97%
    03:00 +19°C° 0.6 mm 1 mps 658 mmHg 97%
    04:00 +19°C° 0.6 mm 1 mps 658 mmHg 98%
    05:00 +19°C° 0.6 mm 1 mps 658 mmHg 98%
    06:00 +19°C° 0.6 mm 1 mps 659 mmHg 97%
    07:00 +19°C° 0.6 mm 1 mps 659 mmHg 97%
    08:00 +19°C° 0.6 mm 1 mps 659 mmHg 97%
    09:00 +20°C° 0.1 mm 1 mps 659 mmHg 94%
    10:00 +20°C° 0.1 mm 2 mps 660 mmHg 91%
    11:00 +21°C° 0.1 mm 2 mps 660 mmHg 88%
    12:00 +22°C° 0.8 mm 1 mps 659 mmHg 88%
    13:00 +22°C° 0.8 mm 1 mps 659 mmHg 89%
    14:00 +22°C° 0.8 mm 1 mps 658 mmHg 89%
    15:00 +22°C° 0.6 mm 1 mps 658 mmHg 90%
    16:00 +22°C° 0.6 mm 1 mps 657 mmHg 92%
    17:00 +22°C° 0.6 mm 1 mps 657 mmHg 93%
    18:00 +21°C° 0.7 mm 1 mps 657 mmHg 94%
    19:00 +20°C° 0.7 mm 1 mps 657 mmHg 94%
    20:00 +20°C° 0.7 mm 1 mps 657 mmHg 95%
    21:00 +20°C° 0.2 mm 1 mps 658 mmHg 95%
    22:00 +17°C° 0.2 mm 0 mps 658 mmHg 95%
    23:00 +17°C° 0.2 mm 0 mps 658 mmHg 95%

    Tomorrow, 24 February, Sunday

    Time Temperature Precipitation Wind Pressure Humidity
    00:00 +17°C° 0.6 mm 0 mps 658 mmHg 96%
    01:00 +17°C° 0.6 mm 0 mps 658 mmHg 96%
    02:00 +19°C° 0.6 mm 1 mps 658 mmHg 96%
    03:00 +17°C° 1.1 mm 0 mps 658 mmHg 97%
    04:00 +17°C° 1.1 mm 0 mps 658 mmHg 97%
    05:00 +17°C° 1.1 mm 0 mps 658 mmHg 97%
    06:00 +17°C° 1.2 mm 0 mps 658 mmHg 97%
    07:00 +17°C° 1.2 mm 0 mps 658 mmHg 97%
    08:00 +17°C° 1.2 mm 0 mps 659 mmHg 97%
    09:00 +18°C° 0.5 mm 0 mps 659 mmHg 96%
    10:00 +19°C° 0.5 mm 0 mps 659 mmHg 95%
    11:00 +19°C° 0.5 mm 0 mps 660 mmHg 93%
    12:00 +19°C° 0.6 mm 0 mps 659 mmHg 93%
    13:00 +20°C° 0.6 mm 0 mps 658 mmHg 93%
    14:00 +20°C° 0.6 mm 0 mps 658 mmHg 93%
    15:00 +20°C° 0.8 mm 0 mps 657 mmHg 94%
    16:00 +19°C° 0.8 mm 0 mps 657 mmHg 95%
    17:00 +19°C° 0.8 mm 0 mps 656 mmHg 96%
    18:00 +19°C° 0.3 mm 0 mps 657 mmHg 96%
    19:00 +18°C° 0.3 mm 0 mps 657 mmHg 96%
    20:00 +18°C° 0.3 mm 0 mps 658 mmHg 96%
    21:00 +18°C° 0 mm 0 mps 658 mmHg 95%
    22:00 +19°C° 0 mm 1 mps 658 mmHg 95%
    23:00 +19°C° 0 mm 1 mps 659 mmHg 94%

    Day after tomorrow, 25 February, Monday

    Time Temperature Precipitation Wind Pressure Humidity
    00:00 +19°C° 0 mm 1 mps 658 mmHg 95%
    01:00 +19°C° 0 mm 1 mps 658 mmHg 95%
    02:00 +19°C° 0 mm 1 mps 658 mmHg 95%
    03:00 +19°C° 0.1 mm 1 mps 657 mmHg 95%
    04:00 +19°C° 0.1 mm 1 mps 657 mmHg 95%
    05:00 +19°C° 0.1 mm 1 mps 657 mmHg 96%
    06:00 +19°C° 0 mm 1 mps 658 mmHg 95%
    07:00 +20°C° 0 mm 1 mps 658 mmHg 95%
    08:00 +20°C° 0 mm 1 mps 658 mmHg 94%
    09:00 +22°C° 0 mm 1 mps 659 mmHg 88%
    10:00 +23°C° 0 mm 2 mps 659 mmHg 82%
    11:00 +25°C° 0 mm 2 mps 660 mmHg 76%
    12:00 +26°C° 0.3 mm 2 mps 659 mmHg 74%
    13:00 +26°C° 0.3 mm 2 mps 659 mmHg 72%
    14:00 +27°C° 0.3 mm 2 mps 658 mmHg 71%
    15:00 +26°C° 3.5 mm 1 mps 657 mmHg 77%
    16:00 +25°C° 3.5 mm 1 mps 657 mmHg 83%
    17:00 +22°C° 3.5 mm 0 mps 656 mmHg 90%
    18:00 +21°C° 2.1 mm 0 mps 657 mmHg 91%
    19:00 +20°C° 2.1 mm 0 mps 657 mmHg 92%
    20:00 +21°C° 2.1 mm 1 mps 658 mmHg 93%
    21:00 +21°C° 0.8 mm 1 mps 658 mmHg 94%
    22:00 +21°C° 0.8 mm 1 mps 658 mmHg 94%
    23:00 +20°C° 0.8 mm 1 mps 659 mmHg 95%

    26 February, Tuesday

    Time Temperature Precipitation Wind Pressure Humidity
    00:00 +20°C° 0.2 mm 1 mps 658 mmHg 95%
    01:00 +20°C° 0.2 mm 1 mps 658 mmHg 95%
    02:00 +20°C° 0.2 mm 1 mps 657 mmHg 95%
    03:00 +19°C° 0 mm 1 mps 657 mmHg 95%
    04:00 +19°C° 0 mm 1 mps 657 mmHg 95%
    05:00 +19°C° 0 mm 1 mps 657 mmHg 95%
    06:00 +20°C° 0 mm 1 mps 657 mmHg 94%
    07:00 +21°C° 0 mm 1 mps 658 mmHg 94%
    08:00 +22°C° 0 mm 1 mps 659 mmHg 93%
    09:00 +23°C° 1 mm 2 mps 659 mmHg 89%
    10:00 +24°C° 1 mm 2 mps 659 mmHg 85%
    11:00 +26°C° 1 mm 2 mps 659 mmHg 81%
    12:00 +27°C° 0.4 mm 2 mps 658 mmHg 75%
    13:00 +28°C° 0.4 mm 2 mps 658 mmHg 69%
    14:00 +29°C° 0.4 mm 2 mps 657 mmHg 63%
    15:00 +28°C° 0.6 mm 1 mps 657 mmHg 68%
    16:00 +28°C° 0.6 mm 1 mps 656 mmHg 74%
    17:00 +27°C° 0.6 mm 1 mps 656 mmHg 80%
    18:00 +26°C° 1.7 mm 1 mps 656 mmHg 83%
    19:00 +24°C° 1.7 mm 1 mps 657 mmHg 86%
    20:00 +22°C° 1.7 mm 1 mps 657 mmHg 89%
    21:00 +22°C° 2.4 mm 1 mps 657 mmHg 90%
    22:00 +21°C° 2.4 mm 1 mps 658 mmHg 91%
    23:00 +21°C° 2.4 mm 1 mps 658 mmHg 92%

    27 February, Wednesday

    Time Temperature Precipitation Wind Pressure Humidity
    00:00 +19°C° 0.1 mm 0 mps 658 mmHg 92%
    01:00 +18°C° 0.1 mm 0 mps 657 mmHg 92%
    02:00 +18°C° 0.1 mm 0 mps 657 mmHg 92%
    03:00 +18°C° 0 mm 0 mps 657 mmHg 93%
    04:00 +18°C° 0 mm 0 mps 656 mmHg 93%
    05:00 +17°C° 0 mm 0 mps 656 mmHg 93%
    06:00 +18°C° 0 mm 0 mps 657 mmHg 92%
    07:00 +19°C° 0 mm 0 mps 658 mmHg 91%
    08:00 +20°C° 0 mm 0 mps 658 mmHg 91%
    09:00 +24°C° 0 mm 1 mps 659 mmHg 83%
    10:00 +25°C° 0 mm 1 mps 659 mmHg 76%
    11:00 +27°C° 0 mm 1 mps 659 mmHg 68%
    12:00 +29°C° 0 mm 1 mps 659 mmHg 65%
    13:00 +30°C° 0 mm 1 mps 658 mmHg 62%
    14:00 +31°C° 0 mm 1 mps 658 mmHg 58%
    15:00 +30°C° 0.7 mm 1 mps 657 mmHg 66%
    16:00 +28°C° 0.7 mm 1 mps 657 mmHg 74%
    17:00 +27°C° 0.7 mm 2 mps 656 mmHg 82%
    18:00 +25°C° 0.4 mm 1 mps 657 mmHg 84%
    19:00 +24°C° 0.4 mm 1 mps 657 mmHg 85%
    20:00 +22°C° 0.4 mm 1 mps 657 mmHg 87%
    21:00 +22°C° 0 mm 1 mps 657 mmHg 87%
    22:00 +21°C° 0 mm 1 mps 657 mmHg 87%
    23:00 +21°C° 0 mm 1 mps 658 mmHg 87%

    28 February, Thursday

    Time Temperature Precipitation Wind Pressure Humidity
    00:00 +19°C° 0 mm 0 mps 657 mmHg 88%
    01:00 +18°C° 0 mm 0 mps 657 mmHg 89%
    02:00 +18°C° 0 mm 0 mps 656 mmHg 90%
    03:00 +18°C° 0 mm 0 mps 656 mmHg 91%
    04:00 +18°C° 0 mm 0 mps 656 mmHg 92%
    05:00 +17°C° 0 mm 0 mps 656 mmHg 93%
    06:00 +20°C° 0 mm 1 mps 657 mmHg 92%
    07:00 +22°C° 0 mm 1 mps 658 mmHg 91%
    08:00 +23°C° 0 mm 1 mps 659 mmHg 89%
    09:00 +25°C° 0 mm 1 mps 659 mmHg 81%
    10:00 +27°C° 0 mm 2 mps 659 mmHg 72%
    11:00 +29°C° 0 mm 2 mps 659 mmHg 64%
    12:00 +29°C° 0 mm 2 mps 659 mmHg 61%
    13:00 +30°C° 0 mm 3 mps 658 mmHg 58%
    14:00 +31°C° 0 mm 3 mps 658 mmHg 55%
    15:00 +30°C° 0.6 mm 2 mps 657 mmHg 64%
    16:00 +29°C° 0.6 mm 2 mps 657 mmHg 72%
    17:00 +27°C° 0.6 mm 1 mps 656 mmHg 80%
    18:00 +26°C° 0.1 mm 1 mps 657 mmHg 83%
    19:00 +24°C° 0.1 mm 1 mps 657 mmHg 86%
    20:00 +23°C° 0.1 mm 1 mps 657 mmHg 88%
    21:00 +22°C° 0.2 mm 1 mps 657 mmHg 89%
    22:00 +22°C° 0.2 mm 1 mps 657 mmHg 90%
    23:00 +21°C° 0.2 mm 1 mps 658 mmHg 91%
    Show more